Regional Weather Roundup
Issued by NWS Burlington, VT

Home | Current Version | Previous Version | Text Only | Print | Product List | Glossary On
Versions: 1 2 3 4 5 6 7 8 9 10 11 12 13 14 15 16 17 18 19 20 21 22 23 24 25 26 27 28 29 30 31 32 33 34 35 36 37 38 39 40 41 42 43 44 45 46 47 48 49 50
000
ASUS41 KBTV 210110
RWRBTV
VERMONT REGIONAL WEATHER ROUNDUP
NATIONAL WEATHER SERVICE BURLINGTON VT
900 PM EDT MON OCT 20 2014

NOTE: "FAIR" INDICATES FEW OR NO CLOUDS BELOW 12,000 FEET WITH NO
SIGNIFICANT WEATHER AND/OR OBSTRUCTIONS TO VISIBILITY.

* THESE REPORTS ARE NOT UNDER NWS QUALITY CONTROL AND/OR DO NOT
  REPORT WEATHER SUCH AS PRECIPITATION AND FOG.

VTZ001>019-210200-
_____VERMONT_____


CITY           SKY/WX    TMP DP  RH WIND       PRES   REMARKS
BURLINGTON     PTCLDY    44  36  73 CALM      29.93S
MONTPELIER     CLOUDY    43  36  76 S3        29.97R
MORRISVILLE    CLOUDY    43  37  79 CALM      29.96R
ST. JOHNSBURY*   N/A     45  36  70 MISG      29.94R
MIDDLEBURY*    CLOUDY    50  36  59 S3        29.93S
RUTLAND*       CLOUDY    46  36  66 SE6       29.94S
SPRINGFIELD    CLOUDY    45  39  79 CALM      29.96R
HIGHGATE*      CLOUDY    44  39  83 CALM      29.94S
NEWPORT*       CLOUDY   N/A N/A N/A CALM      29.95S
BENNINGTON     CLOUDY    50  34  54 CALM      29.93F
SUTTON*          N/A     41 N/A N/A MISG        N/A

_____LAKE CHAMPLAIN_____


CITY           SKY/WX    TMP DP  RH WIND       PRES   REMARKS
COLCHESTER RF*   N/A     50  41  71 S6          N/A
DIAMOND ISL*     N/A     48  39  71 S2          N/A

$$

NYZ007-026>031-035-052-083-210200-
_____NORTHERN NEW YORK_____


CITY           SKY/WX    TMP DP  RH WIND       PRES   REMARKS
PLATTSBURGH    CLOUDY    44  40  85 N3        29.93S
SARANAC LAKE   CLOUDY    39  36  89 CALM      29.88S
MASSENA        CLOUDY    44  43  96 E8        29.92S
OGDENSBURG*    MOCLDY    45  45 100 E5        29.89S
POTSDAM*       LGT RAIN  45  45 100 E5        29.89F
WATERTOWN      LGT RAIN  51  40  65 S3        29.86F
FT DRUM        MOCLDY    48  41  76 SE9       29.86F
ALBANY         CLOUDY    50  38  63 S3        29.94S
GLENS FALLS    MOCLDY    49  36  61 CALM      29.94S

$$
NHZ002-005-011-210200-
_____NEW HAMPSHIRE_____


CITY           SKY/WX    TMP DP  RH WIND       PRES   REMARKS
LEBANON        CLOUDY    42  36  79 CALM      29.95R
KEENE          CLOUDY    48  34  57 CALM      29.98S
MT WASHINGTON  FOG       23  23 100 W38         N/A  VSB 1/16WCI   4
PLYMOUTH       FAIR      41  41 100 CALM      29.97R
WHITEFIELD     CLOUDY    43  37  79 CALM      29.95R

$$

_____REGIONAL QUEBEC LOCATIONS_____


CITY           SKY/WX    TMP DP  RH WIND       PRES   REMARKS
MONTREAL       LGT RAIN  43  37  81 E7        29.95S
QUEBEC CITY    MOCLDY    36  28  75 SW5       29.96R
SHERBROOKE     CLOUDY    39  37  93 VRB2      29.96R

_____REGIONAL ONTARIO LOCATIONS_____


CITY           SKY/WX    TMP DP  RH WIND       PRES   REMARKS
OTTAWA         LGT RAIN  39  37  93 NE7       29.91S

______KEY______
VSB  - VISIBILITY IN MILES
WCI  - WIND CHILL INDEX
HX   - HEAT INDEX
$$
NNNN


USA.gov is the U.S. government's official web portal to all federal, state and local government web resources and services.